This is the latest recevied weather packets stored in our database for station/object N4LLZ-13. If no packets are shown the sender has not sent any weather packets the latest 10 day(s).
| Time | Temp. | Humidity | Pressure | Rain* | Wind** | Luminosity | Snow |
|---|---|---|---|---|---|---|---|
| 1777656930 | 16.67° C | 52% | 1015.4 hPa | 0 mm | - | - | - |
| 1777656629 | 16.67° C | 52% | 1015.6 hPa | 0 mm | - | - | - |
| 1777656027 | 16.67° C | 51% | 1015.5 hPa | 0 mm | - | - | - |
| 1777655426 | 16.11° C | 53% | 1015.6 hPa | 0 mm | - | - | - |
| 1777654523 | 15.56° C | 55% | 1015.7 hPa | 0 mm | - | - | - |
| 1777653922 | 15.56° C | 55% | 1015.7 hPa | 0 mm | - | - | - |
| 1777652718 | 15.56° C | 54% | 1016 hPa | 0 mm | - | - | - |
| 1777651214 | 15° C | 57% | 1016.4 hPa | 0 mm | - | - | - |
| 1777650913 | 14.44° C | 58% | 1016.4 hPa | 0 mm | - | - | - |
| 1777650612 | 14.44° C | 60% | 1016.5 hPa | 0 mm | - | - | - |
| 1777650312 | 13.89° C | 59% | 1016.5 hPa | 0 mm | - | - | - |
| 1777650011 | 13.89° C | 60% | 1016.4 hPa | 0 mm | - | - | - |
| 1777649710 | 13.89° C | 61% | 1016.3 hPa | 0 mm | - | - | - |
| 1777649409 | 13.89° C | 61% | 1016.3 hPa | 0 mm | - | - | - |
| 1777649108 | 13.89° C | 62% | 1016.7 hPa | 0 mm | - | - | - |
| 1777648807 | 13.33° C | 62% | 1016.5 hPa | 0 mm | - | - | - |
| 1777648506 | 13.33° C | 63% | 1016.5 hPa | 0 mm | - | - | - |
| 1777648205 | 13.33° C | 63% | 1016.5 hPa | 0 mm | - | - | - |
| 1777647904 | 13.33° C | 63% | 1016.6 hPa | 0 mm | - | - | - |
| 1777647604 | 13.33° C | 63% | 1016.7 hPa | 0 mm | - | - | - |
| 1777647303 | 13.33° C | 64% | 1016.5 hPa | 0 mm | - | - | - |
| 1777647002 | 13.33° C | 63% | 1016.6 hPa | 0 mm | - | - | - |
| 1777646400 | 12.78° C | 64% | 1016.5 hPa | 0 mm | - | - | - |
| 1777646099 | 12.78° C | 65% | 1016.4 hPa | 0 mm | - | - | - |
| 1777645798 | 12.22° C | 67% | 1016.4 hPa | 1.27 mm | - | - | - |
* Rain latest hour (hover to see other rain measurements)
** Current wind speed in m/s (hover to see current wind gust speed)